This is the latest recevied weather packets stored in our database for station/object EA7OC-10. If no packets are shown the sender has not sent any weather packets the latest 10 day(s).
| Time | Temp. | Humidity | Pressure | Rain* | Wind** | Luminosity | Snow |
|---|---|---|---|---|---|---|---|
| 1777524576 | 14.44° C | 38% | 1016.8 hPa | - | - | - | - |
| 1777523676 | 14.44° C | 38% | 1016.6 hPa | - | - | - | - |
| 1777522775 | 14.44° C | 38% | 1016.4 hPa | - | - | - | - |
| 1777521875 | 14.44° C | 38% | 1016.3 hPa | - | - | - | - |
| 1777520975 | 14.44° C | 38% | 1016.3 hPa | - | - | - | - |
| 1777520075 | 15° C | 38% | 1016.3 hPa | - | - | - | - |
| 1777519175 | 15° C | 38% | 1016.2 hPa | - | - | - | - |
| 1777518275 | 15° C | 38% | 1016.2 hPa | - | - | - | - |
| 1777517375 | 15° C | 38% | 1016.2 hPa | - | - | - | - |
| 1777516475 | 14.44° C | 38% | 1016.1 hPa | - | - | - | - |
| 1777515575 | 15° C | 38% | 1016.1 hPa | - | - | - | - |
| 1777514675 | 15° C | 38% | 1016.1 hPa | - | - | - | - |
| 1777513774 | 15° C | 38% | 1016.1 hPa | - | - | - | - |
| 1777512874 | 15° C | 38% | 1016.1 hPa | - | - | - | - |
| 1777511974 | 15.56° C | 38% | 1016.2 hPa | - | - | - | - |
| 1777510174 | 16.11° C | 38% | 1016.3 hPa | - | - | - | - |
| 1777509274 | 16.11° C | 38% | 1016.3 hPa | - | - | - | - |
| 1777508373 | 16.67° C | 38% | 1016.2 hPa | - | - | - | - |
| 1777507473 | 16.67° C | 38% | 1016 hPa | - | - | - | - |
| 1777506573 | 17.22° C | 38% | 1015.8 hPa | - | - | - | - |
| 1777505673 | 17.22° C | 38% | 1015.6 hPa | - | - | - | - |
| 1777502011 | 18.33° C | 39% | 1015.2 hPa | - | - | - | - |
| 1777501111 | 18.89° C | 39% | 1015 hPa | - | - | - | - |
| 1777500211 | 19.44° C | 39% | 1015.1 hPa | - | - | - | - |
| 1777499310 | 20° C | 39% | 1015 hPa | - | - | - | - |
* Rain since midnight (hover to see other rain measurements)
** Current wind speed in m/s (hover to see current wind gust speed)